FW8351 Weather Reports


time (UTC)temp
C
wind
direction
speed
KPH
gust
KPH
rain 1hr
cm
rain 24hr
cm
rain mn
cm
humidity
%
barometer
mb
20260507160100 13 116 1.6 16.1 0.00 0.00 0.00 64 1010.3
20260507154537 13 127 1.6 12.9 0.00 0.00 0.00 61 1010.2
20260507153041 13 65 0.0 1.6 0.00 0.00 0.00 67 1010.1
20260507151533 13 16 0.0 9.7 0.00 0.00 0.00 61 1010.4
20260507150012 15 117 3.2 20.9 0.00 0.00 0.00 59 1010.3
20260507144550 13 218 1.6 11.3 0.00 0.00 0.00 60 1010.3
20260507143025 13 261 0.0 11.3 0.00 0.00 0.00 59 1010.2
20260507141513 14 236 0.0 4.8 0.00 0.00 0.00 59 1010.1
20260507140055 15 168 0.0 3.2 0.00 0.00 0.00 56 1010.2
20260507134531 15 272 1.6 8.0 0.00 0.00 0.00 52 1010.3
20260507133007 17 141 1.6 12.9 0.00 0.00 0.00 45 1010.2
20260507131609 16 255 1.6 6.4 0.00 0.00 0.00 44 1010.1
20260507130047 16 141 0.0 3.2 0.00 0.00 0.00 43 1010.3
20260507124528 16 259 1.6 4.8 0.00 0.00 0.00 47 1010.5
20260507123010 15 175 0.0 3.2 0.00 0.00 0.00 48 1010.6
20260507121543 15 205 0.0 4.8 0.00 0.00 0.00 49 1010.8
20260507120011 15 161 0.0 0.0 0.00 0.00 0.00 51 1011.0
20260507114548 15 316 0.0 4.8 0.00 0.00 0.00 53 1011.3
20260507113048 14 144 0.0 0.0 0.00 0.00 0.00 49 1011.5
20260507111547 14 154 0.0 4.8 0.00 0.00 0.00 56 1011.7
20260507110022 13 78 0.0 3.2 0.00 0.00 0.00 52 1011.9
20260507104523 13 228 0.0 1.6 0.00 0.00 0.00 59 1011.9
20260507103029 13 157 0.0 3.2 0.00 0.00 0.00 63 1012.0
20260507101606 12 203 0.0 0.0 0.00 0.00 0.00 61 1012.1
20260507100026 12 86 0.0 1.6 0.00 0.00 0.00 61 1012.2
20260507094651 12 146 0.0 1.6 0.00 0.00 0.00 60 1012.3
20260507093025 12 166 0.0 1.6 0.00 0.00 0.00 71 1012.4
20260507091609 11 214 0.0 0.0 0.00 0.00 0.00 68 1012.3
20260507090106 11 180 0.0 1.6 0.00 0.00 0.00 69 1012.4
20260507084543 10 141 0.0 1.6 0.00 0.00 0.00 72 1012.3
20260507083016 10 291 0.0 0.0 0.00 0.00 0.00 76 1012.5
20260507081557 8 168 0.0 0.0 0.00 0.00 0.00 86 1012.4
20260507080038 7 222 0.0 0.0 0.00 0.00 0.00 91 1012.6
20260507074508 6 224 0.0 0.0 0.00 0.00 0.00 93 1012.7
20260507073135 6 152 0.0 0.0 0.00 0.00 0.00 94 1012.6
20260507071608 5 152 0.0 0.0 0.00 0.00 0.00 95 1012.6
20260507070046 5 152 0.0 0.0 0.00 0.00 0.00 95 1012.6
20260507064544 5 152 0.0 1.6 0.00 0.00 0.00 95 1012.6
20260507063046 5 152 0.0 0.0 0.00 0.00 0.00 95 1012.5
20260507061520 5 152 0.0 0.0 0.00 0.00 0.00 94 1012.5
20260507060101 5 152 0.0 0.0 0.00 0.00 0.00 95 1012.5
20260507054602 4 152 0.0 0.0 0.00 0.00 0.00 95 1012.4
20260507053102 4 152 0.0 0.0 0.00 0.00 0.00 94 1012.5
20260507051517 4 152 0.0 0.0 0.00 0.00 0.00 94 1012.4
20260507050022 4 152 0.0 0.0 0.00 0.00 0.00 94 1012.2
20260507044556 4 152 0.0 0.0 0.00 0.00 0.00 94 1012.2
20260507043038 4 152 0.0 0.0 0.00 0.00 0.00 94 1012.2
20260507041535 4 152 0.0 0.0 0.00 0.00 0.00 94 1012.2
20260507040034 4 153 0.0 0.0 0.00 0.00 0.00 94 1012.1
20260507034523 4 153 0.0 0.0 0.00 0.00 0.00 94 1012.2
20260507033015 4 153 0.0 0.0 0.00 0.00 0.00 94 1012.0
20260507031510 4 153 0.0 0.0 0.00 0.00 0.00 94 1012.1
20260507030010 4 153 0.0 0.0 0.00 0.00 0.00 94 1012.1
20260507024509 3 153 0.0 0.0 0.00 0.00 0.00 94 1012.1
20260507023023 3 153 0.0 0.0 0.00 0.00 0.00 94 1012.2
20260507021548 3 153 0.0 0.0 0.00 0.00 0.00 93 1012.1
20260507020020 4 153 0.0 0.0 0.00 0.00 0.00 93 1012.0
20260507014515 4 153 0.0 0.0 0.00 0.00 0.00 94 1012.1
20260507013056 3 153 0.0 0.0 0.00 0.00 0.00 93 1012.2
20260507011509 3 153 0.0 0.0 0.00 0.00 0.00 92 1012.2
20260507010106 4 155 0.0 0.0 0.00 0.00 0.00 92 1012.2
20260507004605 4 155 0.0 0.0 0.00 0.00 0.00 92 1012.5
20260507003028 5 155 0.0 0.0 0.00 0.00 0.00 92 1012.5
20260507001528 5 155 0.0 0.0 0.00 0.00 0.00 93 1012.7
20260507000031 5 155 0.0 0.0 0.00 0.00 0.00 93 1012.7
20260506234609 5 155 0.0 0.0 0.00 0.00 0.00 93 1012.7
20260506233035 5 155 0.0 0.0 0.00 0.00 0.00 92 1012.8
20260506231546 5 155 0.0 0.0 0.00 0.00 0.00 93 1012.8
20260506230039 5 155 0.0 0.0 0.00 0.00 0.00 93 1012.8
20260506224516 5 155 0.0 0.0 0.00 0.00 0.00 92 1012.8
20260506223017 5 164 0.0 0.0 0.00 0.00 0.00 92 1012.8
20260506221521 5 17 0.0 0.0 0.00 0.00 0.00 91 1012.6
20260506220047 5 17 0.0 0.0 0.00 0.00 0.00 91 1012.6
20260506214519 5 17 0.0 0.0 0.00 0.00 0.00 92 1012.7
20260506213013 5 17 0.0 0.0 0.00 0.00 0.00 92 1012.8
20260506211546 5 17 0.0 0.0 0.00 0.00 0.00 92 1012.8
20260506210016 5 278 0.0 0.0 0.00 0.00 0.00 91 1012.8
20260506204601 5 278 0.0 0.0 0.00 0.00 0.00 91 1012.7
20260506203100 5 278 0.0 0.0 0.00 0.00 0.00 91 1012.6
20260506201555 5 278 0.0 0.0 0.00 0.00 0.00 91 1012.4
20260506200043 5 309 0.0 0.0 0.00 0.00 0.00 90 1012.0
20260506194607 5 301 0.0 0.0 0.00 0.00 0.00 89 1011.5
20260506193034 6 97 0.0 0.0 0.00 0.00 0.00 88 1011.2
20260506191509 6 77 0.0 0.0 0.00 0.00 0.00 87 1011.0
20260506190023 6 89 0.0 6.4 0.00 0.00 0.00 85 1010.8
20260506184517 7 305 8.0 22.5 0.00 0.00 0.00 83 1011.0
20260506183040 7 196 0.0 0.0 0.00 0.00 0.00 85 1010.6
20260506181523 7 58 0.0 0.0 0.00 0.00 0.00 84 1010.2
20260506180020 7 54 0.0 1.6 0.00 0.00 0.00 83 1009.9
20260506174536 8 58 0.0 1.6 0.00 0.00 0.00 80 1009.8
20260506173021 8 74 0.0 0.0 0.00 0.00 0.00 80 1009.9
20260506171522 8 56 0.0 0.0 0.00 0.00 0.00 79 1009.9
20260506170024 9 288 0.0 0.0 0.00 0.00 0.00 76 1009.9
20260506164538 9 288 0.0 1.6 0.00 0.00 0.00 80 1009.7
20260506163105 9 303 0.0 1.6 0.00 0.00 0.00 78 1009.7
20260506161521 9 175 0.0 0.0 0.00 0.00 0.00 77 1009.6